| time (UTC) | temp F | wind direction | speed MPH | gust MPH | rain 1hr in | rain 24hr in | rain mn in | humidity % | barometer mb |
| 20260510004526 | 54 | 128 | 0.0 | 1.0 | 0.00 | 0.16 | 0.16 | 87 | 1009.2 |
| 20260510003020 | 55 | 128 | 0.0 | 0.0 | 0.00 | 0.16 | 0.16 | 86 | 1009.2 |
| 20260510001519 | 57 | 128 | 0.0 | 0.0 | 0.00 | 0.16 | 0.16 | 82 | 1009.1 |
| 20260509234521 | 61 | 136 | 0.0 | 1.0 | 0.00 | 0.16 | 0.16 | 78 | 1008.8 |
| 20260509233021 | 62 | 139 | 0.0 | 3.0 | 0.00 | 0.16 | 0.16 | 77 | 1008.7 |
| 20260509231520 | 62 | 143 | 2.0 | 4.0 | 0.00 | 0.16 | 0.16 | 76 | 1008.7 |
| 20260509224518 | 62 | 129 | 2.0 | 7.0 | 0.00 | 0.16 | 0.16 | 74 | 1008.8 |
| 20260509223017 | 63 | 144 | 1.0 | 4.0 | 0.00 | 0.16 | 0.16 | 74 | 1008.7 |
| 20260509221519 | 63 | 207 | 0.0 | 5.0 | 0.00 | 0.16 | 0.16 | 73 | 1008.7 |
| 20260509214513 | 62 | 146 | 0.0 | 3.0 | 0.00 | 0.16 | 0.16 | 75 | 1009.0 |
| 20260509213024 | 0 | 0.0 | 0.0 | 0.00 | 0.16 | 0.16 | 1009.1 | ||
| 20260509211511 | 0 | 0.0 | 0.0 | 0.00 | 0.16 | 0.16 | 1009.3 | ||
| 20260509204507 | 0 | 0.0 | 0.0 | 0.00 | 0.16 | 0.16 | 1009.7 | ||
| 20260509203001 | 0 | 82 | 0.0 | 0.0 | 0.00 | 0.16 | 0.16 | 1009.6 | |
| 20260509201559 | 0 | 0.0 | 0.0 | 0.00 | 0.16 | 0.16 | 1009.2 | ||
| 20260509194553 | 59 | 97 | 0.0 | 3.0 | 0.00 | 0.16 | 0.16 | 80 | 1009.7 |
| 20260509193058 | 60 | 48 | 0.0 | 5.0 | 0.00 | 0.16 | 0.16 | 79 | 1009.7 |
| 20260509191600 | 0 | 0.0 | 0.0 | 0.00 | 0.16 | 0.16 | 1010.0 | ||
| 20260509184552 | 0 | 0.0 | 0.0 | 0.00 | 0.16 | 0.16 | 1010.7 | ||
| 20260509183048 | 0 | 0.0 | 0.0 | 0.00 | 0.16 | 0.16 | 1010.5 | ||
| 20260509181533 | 0 | 0.0 | 0.0 | 0.00 | 0.16 | 0.16 | 1010.6 | ||
| 20260509174532 | 55 | 115 | 0.0 | 1.0 | 0.00 | 0.16 | 0.16 | 90 | 1010.7 |
| 20260509173033 | 54 | 142 | 0.0 | 1.0 | 0.00 | 0.16 | 0.16 | 90 | 1010.9 |
| 20260509171532 | 54 | 147 | 0.0 | 3.0 | 0.01 | 0.16 | 0.16 | 91 | 1011.1 |
| 20260509164530 | 53 | 137 | 1.0 | 4.0 | 0.05 | 0.16 | 0.16 | 93 | 1011.1 |
| 20260509163038 | 52 | 137 | 0.0 | 3.0 | 0.14 | 0.16 | 0.16 | 93 | 1010.8 |
| 20260509161529 | 52 | 102 | 0.0 | 3.0 | 0.13 | 0.15 | 0.15 | 93 | 1010.8 |
| 20260509154526 | 52 | 18 | 0.0 | 1.0 | 0.11 | 0.12 | 0.12 | 90 | 1011.3 |
| 20260509153033 | 0 | 0.0 | 0.0 | 0.02 | 0.02 | 0.02 | 1011.9 | ||
| 20260509151522 | 0 | 0.0 | 0.0 | 0.02 | 0.02 | 0.02 | 1012.0 | ||
| 20260509144529 | 54 | 141 | 0.0 | 1.0 | 0.01 | 0.01 | 0.01 | 84 | 1011.8 |
| 20260509143018 | 55 | 185 | 0.0 | 1.0 | 0.00 | 0.00 | 0.00 | 81 | 1011.6 |
| 20260509141515 | 54 | 158 | 0.0 | 0.0 | 0.00 | 0.00 | 0.00 | 82 | 1011.6 |
| 20260509134510 | 54 | 141 | 0.0 | 0.0 | 0.00 | 0.00 | 0.00 | 86 | 1011.5 |
| 20260509133009 | 53 | 136 | 0.0 | 0.0 | 0.00 | 0.00 | 0.00 | 86 | 1011.4 |
| 20260509131510 | 53 | 136 | 0.0 | 1.0 | 0.00 | 0.00 | 0.00 | 87 | 1011.3 |
| 20260509124505 | 53 | 105 | 2.0 | 4.0 | 0.00 | 0.00 | 0.00 | 86 | 1011.1 |
| 20260509123005 | 53 | 37 | 0.0 | 3.0 | 0.00 | 0.00 | 0.00 | 86 | 1011.1 |
| 20260509121509 | 53 | 267 | 0.0 | 0.0 | 0.00 | 0.00 | 0.00 | 86 | 1011.1 |
| 20260509114506 | 52 | 310 | 0.0 | 2.0 | 0.00 | 0.00 | 0.00 | 84 | 1010.8 |
| 20260509113005 | 51 | 122 | 0.0 | 1.0 | 0.00 | 0.00 | 0.00 | 84 | 1010.8 |
| 20260509111505 | 51 | 65 | 0.0 | 1.0 | 0.00 | 0.00 | 0.00 | 84 | 1011.0 |
| 20260509104511 | 51 | 254 | 0.0 | 1.0 | 0.00 | 0.00 | 0.00 | 85 | 1010.7 |
| 20260509103009 | 0 | 0.0 | 0.0 | 0.00 | 0.00 | 0.00 | 1010.4 | ||
| 20260509101510 | 0 | 0.0 | 0.0 | 0.00 | 0.00 | 0.00 | 1010.5 | ||
| 20260509094609 | 50 | 7 | 0.0 | 0.0 | 0.00 | 0.00 | 0.00 | 87 | 1010.3 |
| 20260509093057 | 50 | 105 | 0.0 | 0.0 | 0.00 | 0.00 | 0.00 | 86 | 1010.5 |
| 20260509091606 | 50 | 105 | 0.0 | 0.0 | 0.00 | 0.00 | 0.00 | 85 | 1010.6 |
| 20260509084600 | 51 | 124 | 0.0 | 1.0 | 0.00 | 0.00 | 0.00 | 82 | 1010.7 |
| 20260509083059 | 51 | 124 | 0.0 | 1.0 | 0.00 | 0.00 | 0.00 | 82 | 1010.7 |
| 20260509081554 | 51 | 276 | 0.0 | 0.0 | 0.00 | 0.00 | 0.00 | 82 | 1010.8 |
| 20260509074555 | 51 | 76 | 0.0 | 0.0 | 0.00 | 0.00 | 0.00 | 81 | 1011.0 |
| 20260509073052 | 51 | 68 | 0.0 | 1.0 | 0.00 | 0.00 | 0.00 | 80 | 1011.0 |
| 20260509071547 | 0 | 0.0 | 0.0 | 0.00 | 0.00 | 0.00 | 1011.2 | ||
| 20260509064541 | 51 | 342 | 0.0 | 1.0 | 0.00 | 0.00 | 0.00 | 78 | 1011.3 |
| 20260509063039 | 0 | 0.0 | 0.0 | 0.00 | 0.00 | 0.00 | 1011.4 | ||
| 20260509061536 | 0 | 0.0 | 0.0 | 0.00 | 0.00 | 0.00 | 1011.4 | ||
| 20260509054533 | 0 | 0.0 | 0.0 | 0.00 | 0.00 | 0.00 | 1011.4 | ||
| 20260509053039 | 0 | 0.0 | 0.0 | 0.00 | 0.00 | 0.00 | 1011.4 | ||
| 20260509051524 | 0 | 0.0 | 0.0 | 0.00 | 0.00 | 0.00 | 1011.9 | ||
| 20260509044520 | 0 | 0.0 | 0.0 | 0.00 | 0.00 | 0.00 | 1011.9 | ||
| 20260509043017 | 52 | 309 | 0.0 | 0.0 | 0.00 | 0.00 | 0.00 | 76 | 1012.0 |
| 20260509041513 | 53 | 310 | 0.0 | 0.0 | 0.00 | 0.00 | 0.00 | 73 | 1011.9 |
| 20260509034508 | 54 | 313 | 0.0 | 1.0 | 0.00 | 0.00 | 0.00 | 70 | 1012.2 |
| 20260509033008 | 54 | 305 | 0.0 | 1.0 | 0.00 | 0.00 | 0.00 | 74 | 1012.6 |
| 20260509031509 | 54 | 161 | 0.0 | 1.0 | 0.00 | 0.00 | 0.00 | 72 | 1012.4 |
| 20260509024512 | 54 | 162 | 0.0 | 2.0 | 0.00 | 0.00 | 0.00 | 71 | 1012.5 |
| 20260509023008 | 54 | 303 | 0.0 | 2.0 | 0.00 | 0.00 | 0.00 | 76 | 1012.1 |
| 20260509021507 | 53 | 320 | 0.0 | 0.0 | 0.00 | 0.00 | 0.00 | 77 | 1011.8 |
| 20260509014506 | 54 | 320 | 0.0 | 0.0 | 0.00 | 0.00 | 0.00 | 73 | 1012.0 |
| 20260509013005 | 54 | 320 | 0.0 | 0.0 | 0.00 | 0.00 | 0.00 | 72 | 1011.9 |
| 20260509011505 | 55 | 320 | 0.0 | 0.0 | 0.00 | 0.00 | 0.00 | 70 | 1011.8 |